Wind_Speed
24 24 24 25 25 23 23 25 24 22 20 17 16 15 13 12 11 10 9 8 7 5 5 6 6 6 6 6 7 7 6 6 6 6 5 4 4 4 4 4 4 4 4 4 4 5 5 5 5
23 23 24 24 24 24 25 25 25 23 21 18 16 15 13 11 10 10 9 8 6 5 5 6 6 6 6 7 6 6 6 5 4 4 4 3 3 4 3 4 4 4 3 4 4 4 4 4 4
21 22 24 24 24 25 26 26 25 24 22 20 17 15 13 11 10 9 9 8 6 5 5 6 6 6 6 6 6 5 5 5 4 3 3 3 4 4 4 4 4 3 3 3 3 3 3 3 4
20 22 23 23 24 25 26 26 25 24 23 20 18 15 13 11 10 9 8 8 6 5 5 5 6 6 6 5 5 5 5 4 4 3 3 3 3 4 4 4 4 3 3 3 2 3 2 3 3
18 20 21 23 25 25 26 26 26 24 22 20 18 16 14 12 10 9 8 7 6 5 5 5 5 6 6 6 6 5 4 4 4 3 4 4 3 3 4 3 3 3 3 3 3 2 2 2 2
16 18 20 22 24 24 25 25 26 25 23 21 19 17 14 12 10 9 8 7 6 6 5 4 4 5 5 5 5 4 3 3 3 3 3 3 3 2 3 3 3 3 3 3 2 2 2 3 3
15 17 19 22 24 24 25 25 25 24 23 22 20 17 15 12 11 9 8 7 6 6 5 4 4 4 4 3 3 3 2 2 2 2 2 2 2 2 2 3 3 3 3 3 3 2 3 3 3
13 15 18 21 23 24 25 25 24 24 23 22 21 19 16 13 11 10 9 8 7 6 6 4 3 3 3 2 2 2 1 0 1 1 2 1 1 2 2 2 2 3 3 2 2 2 3 3 3
12 13 17 20 22 23 24 25 24 23 23 22 22 20 18 15 12 11 10 9 8 7 6 5 3 2 2 2 1 1 0 1 1 2 1 1 1 1 1 2 2 2 2 2 2 2 3 3 3
10 13 16 18 20 22 23 24 24 24 23 22 22 21 19 17 14 12 11 9 9 8 7 5 4 1 1 1 1 1 1 1 2 2 2 2 2 1 1 2 2 2 2 2 1 2 3 3 4
9 12 14 16 18 20 21 22 22 23 23 22 22 22 20 18 16 13 12 11 9 8 7 6 5 3 2 1 1 1 1 1 2 3 3 3 2 1 1 1 2 2 2 2 1 2 3 3 3
8 11 13 15 16 18 20 21 22 22 22 22 21 21 21 18 16 14 12 12 10 9 8 7 5 3 2 1 0 0 2 2 3 4 4 4 3 2 2 2 2 2 2 2 1 2 2 3 3
7 9 11 13 15 16 17 19 21 21 21 20 21 21 20 19 17 15 13 12 12 10 9 8 7 5 3 2 0 1 1 2 3 4 4 5 4 3 3 3 3 2 2 3 2 2 2 3 2
6 7 9 11 13 14 16 17 18 19 19 19 20 20 20 19 17 16 15 13 12 11 10 9 8 7 5 3 1 0 1 2 3 5 5 5 5 5 4 4 4 3 3 3 3 2 3 3 3
3 5 7 9 11 12 13 15 16 17 18 18 18 19 19 19 18 16 15 14 12 12 11 10 10 9 7 5 2 1 1 2 3 5 6 6 5 5 5 5 5 4 4 3 3 3 3 4 4
3 2 5 7 8 10 11 13 14 15 17 17 17 18 19 18 17 16 15 14 13 12 11 11 11 10 9 7 4 2 2 2 3 5 6 6 6 6 6 6 6 6 5 4 4 4 3 4 4
4 2 1 4 6 7 9 11 11 13 15 16 17 18 19 19 17 16 15 14 13 13 12 11 11 10 9 8 6 4 2 2 3 5 6 7 7 7 7 7 7 7 6 6 6 5 4 4 4
6 4 2 3 4 5 7 8 10 11 13 14 16 17 18 19 18 16 16 15 13 12 12 11 11 10 9 8 7 5 3 3 2 4 6 7 8 8 8 8 8 8 7 7 7 7 6 6 5
9 7 5 5 5 5 5 7 8 10 11 13 14 16 18 19 18 16 16 15 14 13 12 12 11 10 8 8 7 6 5 3 3 4 5 7 8 8 8 8 9 9 8 8 8 8 7 7 8
11 10 8 7 6 5 5 6 7 8 9 11 13 15 16 17 18 17 16 15 14 13 12 12 12 10 9 8 8 6 5 3 3 4 5 6 8 9 9 9 10 10 10 10 9 9 9 9 9
13 12 11 10 7 6 5 5 6 7 8 10 12 13 15 15 16 16 15 15 14 14 13 12 12 11 10 9 8 7 5 5 5 6 7 8 9 10 10 9 10 11 11 11 11 11 10 10 10
15 14 14 12 10 9 7 6 5 5 7 10 11 12 13 14 14 14 15 15 14 14 14 14 13 12 11 11 10 8 7 6 6 6 7 9 9 10 10 11 11 11 12 12 12 12 11 11 11
16 15 15 14 12 10 9 7 5 5 6 8 10 11 12 13 14 14 14 13 13 14 14 14 14 13 12 11 10 10 9 7 6 6 7 8 9 10 11 12 13 13 13 14 13 13 12 12 12
17 17 16 15 14 12 11 8 5 5 6 7 8 10 11 12 14 13 13 13 14 14 14 14 14 13 12 11 11 11 10 9 7 6 7 7 8 10 12 12 12 14 15 15 14 14 14 14 14
18 18 17 16 16 14 12 10 8 7 7 7 7 9 10 12 13 14 13 13 13 14 14 13 13 13 12 11 11 12 12 12 9 7 7 7 8 9 10 11 12 13 14 15 15 16 16 16 16
21 19 18 18 17 16 15 13 10 10 9 8 8 9 10 12 14 14 13 12 12 13 13 14 13 13 13 12 12 11 11 11 11 10 8 7 8 9 10 11 13 13 14 14 15 16 16 16 16
22 21 20 20 19 18 17 15 13 11 10 9 9 10 11 12 13 14 14 12 12 13 14 14 13 12 12 13 12 12 11 12 11 11 9 8 8 8 9 10 11 13 14 15 16 17 17 17 17
25 23 22 21 21 20 18 17 14 13 12 11 11 12 12 12 13 14 14 13 13 14 13 13 13 13 12 12 13 13 12 12 12 11 10 8 8 9 10 11 11 12 13 14 15 17 17 18 19
27 26 25 23 22 21 20 18 16 15 15 14 14 14 14 13 13 14 14 13 14 14 13 13 13 13 13 13 13 13 13 13 12 11 10 10 9 9 10 10 11 12 12 13 14 15 16 17 18
29 27 26 25 24 23 22 19 17 17 17 16 15 15 14 14 14 14 14 13 14 14 14 13 13 13 13 14 14 14 14 13 13 12 11 11 11 11 11 11 12 12 13 14 15 16 17 18 19
Wind_Direction
65 63 61 59 55 53 53 53 50 48 47 50 52 52 53 58 60 63 69 74 80 92 102 103 105 103 105 113 113 109 105 99 93 88 85 83 75 69 69 69 62 58 58 60 66 68 70 73 77
65 62 59 57 54 52 51 52 48 43 41 44 48 50 50 52 58 63 69 71 78 88 96 100 102 98 104 108 104 105 102 99 94 82 81 82 75 73 69 66 63 56 58 60 66 69 71 71 75
63 59 57 55 54 52 51 50 47 42 40 41 43 44 44 48 56 60 67 64 68 81 99 105 105 99 102 104 102 98 94 91 90 81 82 80 76 70 69 65 66 61 65 64 61 68 72 74 78
62 60 57 55 54 52 51 50 46 40 38 39 42 44 42 45 54 59 62 62 65 78 94 105 106 97 95 100 99 98 87 83 83 81 87 86 81 76 70 63 65 70 64 57 59 67 78 78 84
62 60 57 56 53 52 50 49 45 40 37 39 42 43 44 45 51 58 61 61 60 72 87 98 103 98 93 96 97 96 88 90 86 85 90 85 85 76 72 61 64 70 61 56 59 63 77 93 103
61 60 59 55 53 51 49 47 43 39 37 37 39 39 41 43 47 54 58 58 55 60 74 85 95 103 102 103 102 101 90 90 99 100 95 79 80 72 66 63 57 68 69 60 49 59 95 113 123
62 61 59 56 53 50 48 45 41 39 37 36 36 36 38 41 44 51 54 53 52 56 61 78 89 100 109 111 106 102 87 72 102 110 109 99 83 71 74 61 55 72 73 61 52 77 106 109 116
61 60 59 58 55 50 47 44 41 39 36 35 35 36 39 39 41 46 46 47 48 49 51 55 76 90 94 101 118 99 69 104 132 129 139 125 90 71 72 79 74 84 77 65 74 87 107 115 118
62 59 59 60 55 50 46 44 41 39 36 34 35 36 37 37 37 40 42 42 41 44 46 44 70 92 85 91 108 88 89 179 171 162 165 165 161 78 93 116 109 94 89 84 102 100 111 120 124
59 60 60 59 57 52 48 44 40 37 35 33 34 35 35 35 34 35 37 37 37 39 39 41 45 62 89 91 84 133 161 184 191 181 177 179 182 149 113 121 124 123 103 102 106 134 118 121 125
57 59 60 59 57 54 49 44 40 37 33 31 32 33 32 31 30 30 31 32 32 33 34 31 30 47 79 73 65 133 170 197 206 190 185 181 179 172 145 128 141 132 115 107 114 137 124 126 129
59 59 60 59 58 55 50 44 39 36 33 31 31 30 29 28 28 28 27 26 26 29 32 33 34 35 56 56 75 165 194 204 208 199 192 189 188 188 185 172 164 159 146 135 141 152 142 139 136
72 62 61 62 59 54 50 44 38 35 33 29 30 29 26 25 25 24 23 27 29 29 34 32 31 24 31 31 1 222 216 217 209 202 201 194 190 192 193 190 185 179 174 172 167 167 176 172 159
81 65 65 63 58 53 48 43 38 35 33 29 27 27 24 23 23 23 24 28 31 33 37 33 27 18 15 13 3 217 233 238 222 208 200 198 196 202 203 203 203 201 197 190 191 197 204 203 202
115 78 69 63 55 53 47 42 37 34 31 29 27 25 22 23 23 23 26 29 31 33 34 31 26 20 21 22 9 312 273 241 232 213 205 207 209 212 214 214 214 214 210 207 208 205 220 223 221
167 119 77 59 53 51 47 42 35 30 26 26 26 24 21 23 25 24 27 30 31 33 30 26 25 22 22 20 12 334 304 260 240 226 221 219 220 218 218 220 222 219 217 219 219 216 219 226 231
219 202 87 45 40 41 42 37 29 26 23 23 25 24 23 22 24 25 25 27 29 31 29 26 25 23 21 18 16 3 320 291 248 229 225 224 225 225 224 225 227 226 226 229 231 227 231 241 241
233 241 269 328 3 15 27 29 25 20 20 21 22 22 22 23 23 24 24 26 26 27 27 26 23 20 18 15 14 9 343 305 262 233 230 229 230 231 231 232 231 233 233 235 239 237 241 249 251
240 248 262 290 315 340 5 13 15 17 20 19 20 19 20 22 23 22 21 23 23 23 22 23 18 13 12 10 6 1 352 321 281 247 242 232 231 233 236 239 237 238 238 239 242 248 252 256 258
241 250 260 276 296 318 345 359 8 16 16 16 17 17 16 18 18 18 20 20 18 16 18 19 16 14 10 5 2 1 351 329 305 268 260 245 235 238 243 244 240 238 241 242 245 251 256 257 258
242 251 258 267 282 296 319 344 353 5 8 12 14 16 16 15 15 14 14 13 14 13 13 12 11 8 4 4 2 356 337 314 301 279 262 255 248 242 240 240 241 242 244 246 249 253 254 255 257
241 252 259 267 272 281 300 319 332 343 360 8 9 12 13 10 11 11 9 9 9 12 12 10 7 4 1 1 0 355 341 322 308 293 269 259 250 241 242 243 244 245 244 246 248 252 254 255 257
241 252 259 265 267 273 285 303 320 331 349 357 2 7 7 6 7 7 6 6 4 6 7 5 2 0 359 359 356 354 346 330 314 302 283 261 251 247 248 249 248 247 246 247 249 250 251 253 257
244 250 257 259 259 262 272 284 299 311 322 336 351 359 1 4 5 5 2 0 0 0 360 358 358 356 353 352 353 353 349 342 327 312 293 270 257 254 253 251 252 250 248 247 249 250 251 254 259
245 247 250 252 254 256 263 269 281 295 304 315 336 351 356 1 5 3 358 356 356 355 355 355 354 356 352 350 351 351 351 348 344 326 307 284 264 260 262 259 258 255 251 250 250 250 251 255 260
242 244 246 249 251 252 257 263 273 283 295 307 322 339 346 354 358 359 358 357 355 353 353 353 352 352 353 352 350 349 346 343 341 334 316 301 278 271 268 266 261 259 256 253 252 252 254 256 260
237 240 243 246 248 249 255 262 266 274 285 297 313 325 336 344 351 353 355 357 354 352 352 351 351 350 351 352 349 343 342 340 336 333 326 309 298 285 273 271 266 262 260 257 255 255 256 257 261
235 238 241 244 246 248 253 259 267 272 279 289 303 315 324 333 341 345 347 350 350 349 348 349 347 345 345 346 347 344 340 339 336 331 327 322 309 297 281 273 271 266 263 263 261 259 261 260 261
236 238 242 245 249 251 252 256 263 268 274 283 293 302 311 319 329 337 342 343 346 346 345 347 346 343 342 342 343 343 341 339 336 332 326 319 318 310 300 283 275 272 270 270 270 269 268 267 265
236 238 241 244 248 251 255 255 259 264 269 276 284 292 299 309 318 327 333 335 340 342 345 347 348 346 344 342 340 339 340 339 335 332 328 321 314 311 305 296 288 282 279 275 274 274 271 269 269
Height
5908 5906 5906 5904 5903 5900 5897 5895 5894 5893 5892 5891 5890 5890 5889 5890 5890 5892 5890 5889 5889 5890 5890 5890 5891 5891 5891 5892 5893 5893 5895 5896 5897 5898 5899 5900 5901 5901 5902 5903 5903 5904 5904 5904 5904 5905 5905 5905 5906
5911 5910 5909 5907 5905 5902 5900 5897 5896 5895 5894 5893 5892 5891 5891 5891 5891 5891 5890 5890 5891 5891 5891 5891 5891 5891 5892 5893 5894 5895 5896 5897 5898 5899 5900 5901 5901 5902 5902 5903 5904 5904 5904 5905 5905 5905 5906 5906 5906
5913 5912 5912 5909 5907 5904 5903 5900 5899 5898 5896 5895 5894 5893 5893 5892 5892 5892 5891 5891 5892 5892 5892 5892 5892 5892 5893 5893 5894 5895 5896 5897 5898 5899 5900 5901 5901 5902 5903 5903 5904 5904 5905 5905 5906 5906 5906 5906 5907
5916 5916 5914 5912 5909 5907 5905 5903 5901 5900 5899 5898 5896 5895 5894 5894 5893 5893 5893 5893 5893 5893 5893 5893 5893 5893 5893 5894 5895 5896 5896 5897 5898 5899 5900 5901 5902 5902 5903 5903 5904 5905 5905 5906 5906 5906 5906 5907 5907
5919 5918 5917 5914 5912 5910 5907 5906 5904 5902 5901 5900 5899 5898 5896 5896 5895 5894 5894 5894 5894 5894 5893 5893 5893 5894 5894 5895 5895 5896 5897 5898 5899 5899 5900 5901 5902 5903 5903 5904 5904 5905 5905 5906 5906 5906 5907 5907 5907
5921 5920 5919 5916 5914 5912 5910 5908 5906 5905 5904 5902 5901 5900 5898 5898 5897 5896 5895 5895 5895 5895 5894 5894 5894 5894 5894 5895 5895 5896 5897 5898 5899 5899 5900 5901 5902 5903 5903 5904 5905 5905 5905 5906 5906 5906 5907 5907 5907
5923 5922 5920 5919 5917 5915 5913 5911 5909 5908 5907 5905 5903 5902 5900 5899 5899 5897 5897 5896 5896 5895 5895 5894 5894 5895 5895 5895 5896 5896 5897 5898 5899 5900 5900 5901 5902 5903 5903 5904 5905 5905 5906 5906 5906 5907 5907 5907 5908
5925 5925 5922 5921 5919 5918 5916 5914 5913 5911 5910 5908 5906 5904 5902 5902 5900 5899 5898 5897 5897 5896 5895 5895 5895 5895 5895 5895 5896 5896 5897 5897 5898 5899 5900 5901 5902 5903 5903 5904 5905 5906 5906 5906 5907 5907 5907 5908 5908
5927 5927 5924 5923 5922 5921 5919 5917 5916 5914 5912 5910 5908 5906 5905 5903 5901 5900 5899 5898 5897 5896 5896 5895 5895 5895 5896 5896 5896 5896 5896 5897 5898 5899 5900 5901 5902 5903 5903 5904 5905 5906 5906 5907 5907 5907 5908 5908 5909
5929 5928 5927 5925 5924 5923 5921 5920 5919 5917 5915 5913 5911 5908 5906 5905 5903 5902 5900 5899 5898 5897 5896 5895 5895 5895 5895 5896 5896 5896 5896 5897 5898 5898 5900 5901 5902 5903 5904 5904 5905 5906 5907 5907 5908 5908 5908 5909 5909
5930 5929 5928 5927 5926 5924 5924 5922 5921 5919 5917 5915 5913 5911 5909 5907 5905 5903 5902 5900 5899 5897 5897 5896 5894 5895 5895 5895 5896 5896 5896 5897 5897 5898 5899 5900 5902 5903 5904 5904 5905 5906 5907 5907 5908 5908 5909 5909 5910
5932 5931 5930 5929 5928 5926 5925 5924 5923 5922 5920 5918 5916 5914 5911 5909 5907 5905 5903 5901 5899 5898 5897 5896 5895 5895 5895 5895 5895 5895 5896 5896 5897 5898 5899 5900 5901 5902 5903 5904 5905 5906 5907 5908 5908 5909 5909 5910 5910
5933 5932 5932 5931 5930 5929 5927 5926 5926 5924 5922 5920 5918 5915 5913 5911 5909 5906 5904 5902 5900 5899 5898 5897 5896 5895 5895 5895 5895 5895 5895 5896 5897 5898 5898 5900 5901 5902 5903 5904 5905 5906 5907 5908 5908 5909 5909 5910 5911
5934 5933 5933 5932 5931 5930 5929 5928 5928 5926 5925 5922 5920 5917 5915 5912 5910 5908 5905 5903 5902 5900 5899 5898 5897 5896 5895 5895 5895 5895 5895 5896 5896 5897 5898 5899 5901 5902 5903 5904 5905 5906 5907 5907 5908 5909 5909 5910 5910
5934 5934 5934 5933 5933 5932 5931 5931 5930 5928 5927 5924 5922 5919 5916 5914 5911 5909 5907 5905 5903 5902 5900 5899 5898 5896 5895 5895 5894 5894 5895 5895 5896 5897 5898 5899 5900 5901 5902 5904 5905 5906 5906 5907 5908 5909 5909 5909 5910
5934 5935 5935 5935 5934 5933 5934 5933 5931 5930 5928 5926 5923 5921 5918 5915 5912 5910 5908 5906 5905 5903 5902 5900 5898 5897 5896 5896 5895 5894 5894 5895 5895 5896 5897 5898 5899 5900 5902 5903 5904 5905 5906 5907 5907 5908 5909 5909 5909
5934 5935 5935 5935 5934 5934 5934 5933 5932 5931 5930 5927 5925 5922 5919 5916 5913 5911 5909 5908 5906 5904 5903 5901 5899 5898 5897 5896 5895 5894 5894 5894 5895 5895 5896 5898 5899 5899 5901 5902 5903 5904 5905 5906 5907 5908 5908 5908 5909
5934 5934 5934 5935 5935 5934 5934 5934 5933 5932 5930 5928 5926 5923 5920 5918 5914 5912 5911 5909 5907 5906 5904 5902 5900 5899 5898 5897 5896 5895 5894 5894 5895 5895 5896 5897 5898 5899 5900 5901 5902 5903 5904 5905 5906 5907 5907 5908 5908
5933 5934 5934 5934 5934 5934 5934 5934 5934 5932 5931 5929 5927 5924 5922 5920 5917 5915 5913 5911 5909 5907 5905 5902 5901 5899 5898 5897 5896 5895 5894 5894 5894 5894 5895 5895 5896 5897 5899 5900 5901 5902 5903 5904 5905 5905 5906 5906 5907
5932 5933 5933 5934 5934 5934 5934 5934 5933 5933 5932 5930 5928 5925 5923 5921 5918 5916 5914 5912 5910 5908 5906 5903 5901 5900 5898 5897 5896 5895 5894 5894 5893 5893 5894 5894 5895 5896 5897 5898 5899 5900 5902 5902 5903 5904 5904 5905 5905
5931 5932 5932 5933 5933 5933 5934 5934 5934 5933 5932 5931 5929 5926 5924 5922 5919 5917 5915 5913 5911 5909 5906 5904 5902 5900 5898 5897 5896 5895 5893 5893 5892 5892 5893 5893 5893 5894 5895 5896 5897 5898 5899 5900 5901 5902 5902 5903 5903
5929 5930 5931 5931 5932 5932 5933 5933 5934 5933 5932 5930 5929 5927 5925 5922 5920 5917 5915 5914 5911 5909 5907 5905 5903 5901 5898 5897 5895 5894 5893 5892 5891 5891 5891 5891 5891 5892 5893 5894 5895 5896 5897 5898 5899 5899 5900 5900 5901
5927 5928 5929 5929 5930 5931 5931 5932 5933 5932 5931 5930 5929 5927 5925 5923 5920 5918 5916 5914 5912 5909 5907 5905 5903 5901 5899 5897 5895 5893 5892 5891 5890 5889 5889 5889 5889 5890 5891 5891 5892 5893 5894 5895 5896 5897 5897 5898 5898
5924 5925 5926 5927 5928 5929 5930 5931 5932 5931 5931 5930 5928 5926 5924 5923 5920 5918 5915 5914 5911 5909 5907 5905 5903 5901 5899 5897 5895 5893 5891 5890 5889 5888 5888 5887 5887 5888 5888 5889 5889 5890 5891 5892 5893 5893 5894 5895 5895
5921 5923 5924 5925 5926 5927 5928 5928 5930 5930 5929 5929 5927 5926 5924 5922 5920 5918 5915 5913 5911 5909 5907 5905 5903 5901 5899 5897 5895 5893 5892 5890 5888 5887 5886 5886 5886 5886 5886 5886 5887 5887 5888 5888 5889 5890 5891 5891 5892
5917 5920 5922 5923 5923 5924 5925 5926 5928 5928 5928 5927 5926 5925 5923 5922 5920 5917 5915 5913 5911 5909 5907 5905 5903 5901 5899 5897 5895 5893 5891 5890 5888 5886 5885 5884 5884 5884 5884 5884 5884 5884 5885 5885 5886 5887 5887 5888 5888
5913 5915 5917 5919 5920 5921 5922 5924 5925 5926 5926 5926 5925 5924 5922 5921 5919 5917 5914 5912 5911 5909 5907 5905 5903 5900 5898 5896 5894 5893 5891 5889 5887 5885 5884 5883 5882 5882 5881 5881 5881 5881 5881 5882 5882 5883 5883 5884 5884
5909 5911 5913 5914 5916 5917 5919 5920 5922 5923 5923 5923 5923 5922 5921 5919 5918 5916 5914 5912 5910 5908 5906 5904 5902 5900 5898 5896 5894 5892 5890 5888 5887 5885 5883 5882 5881 5880 5879 5879 5878 5878 5878 5878 5878 5879 5879 5879 5880
5905 5907 5908 5910 5912 5914 5915 5919 5919 5920 5920 5920 5920 5919 5919 5918 5916 5915 5913 5911 5909 5908 5905 5903 5901 5899 5897 5895 5893 5891 5889 5887 5886 5884 5882 5881 5879 5878 5877 5877 5876 5875 5875 5875 5875 5875 5875 5875 5875
5898 5901 5904 5906 5908 5910 5911 5917 5915 5916 5916 5917 5917 5917 5916 5915 5914 5913 5911 5910 5908 5906 5904 5902 5900 5898 5896 5894 5892 5890 5888 5886 5884 5882 5881 5879 5878 5876 5875 5874 5873 5872 5872 5871 5871 5871 5871 5870 5870